sat.trackr.live / text

‹ back to catalog

QIANFAN-211

NORAD 69810 · 2026-153L

PAYLOAD ACTIVE UNKNOWN

§ Identity

Operator
Country
PRC
Launch date
2026-07-04
Launch site
TAISC
Launch vehicle
Mass (kg)
RCS (m²)

External: N2YO · Heavens-Above · Gunter

§ Orbital elements

Epoch: 2026-09-20T03:36:21.015072Z

Period
101.80 min
Inclination
88.9979°
Eccentricity
0.0006688
Mean motion
14.14540683 rev/d
Perigee alt
839.0 km
Apogee alt
848.7 km
Semi-major
7,222.0 km
B*
1.3870e-4
RAAN
351.4612°
Arg perigee
346.8951°
Mean anomaly
13.2061°
Rev number
1,102

§ Raw data

QIANFAN-2111 69810U 26153L   26263.15024323  .00000280  00000+0  13870-3 0  99912 69810  88.9979 351.4612 0006688 346.8951  13.2061 14.14540683 11025

JSON: /api/v1/satellites/69810 · /tle

For live sub-satellite position, see the globe view (requires WebGL).

§ Visibility from observer

Set your observer location to see the next 7 days of passes ≥ 10°. The values pass through the URL so the page stays shareable.

No JS? Fill the form by hand. The geolocation button needs JavaScript.